Weather History for KTVL - September, 2013

Change the Weather History Date:

Saturday, September 21, 2013

  Actual Average Record
Temperature  
Mean Temperature 48 °F 53 °F  
Max Temperature 59 °F 72 °F 84 °F (2000)
Min Temperature 36 °F 33 °F 22 °F (1986)
Degree Days  
Heating Degree Days 17 12  
Month to date heating degree days 112 206  
Since 1 July heating degree days 288 502  
Cooling Degree Days 0 0  
Month to date cooling degree days 6 0  
Year to date cooling degree days 104 30  
Moisture  
Dew Point 35 °F    
Average Humidity 60    
Maximum Humidity 85    
Minimum Humidity 35    
Precipitation  
Precipitation 0.39 in - 0.39 in (2013)
Month to date precipitation 0.71  
Year to date precipitation 7.15  
Sea Level Pressure  
Sea Level Pressure 29.81 in    
Wind  
Wind Speed 13 mph (South)    
Max Wind Speed 32 mph    
Max Gust Speed 44 mph    
Visibility 7 miles    
Events Rain , Snow    
T = Trace of Precipitation, MM = Missing Value Source: NWS Daily Summary

Daily Weather History Graph

Daily Weather History Graph

Search for Another Location

Airport or City:

Trip Planner

Search our weather history database for the weather conditions in past years. The results will help you decide how hot, cold, wet, or windy it might be!

Date:

Astronomy

Sep. 21, 2013 Rise Set
Actual Time 6:47 AM PDT 6:58 PM PDT
Civil Twilight 6:20 AM PDT 7:24 PM PDT
Nautical Twilight 5:49 AM PDT 7:55 PM PDT
Astronomical Twilight 5:17 AM PDT 8:27 PM PDT
Moon 8:13 PM PDT (9/21) 9:09 AM PDT (9/21)
Length of Visible Light 13h 04m
Length of Day
12h 10m
Waning Gibbous, 94% of the Moon is Illuminated
Sep 21
Waning Gibbous
Sep 26
Last Quarter
Oct 4
New
Oct 11
First Quarter
Oct 18
Full

Hourly Weather History & Observations

Time (PDT) Temp. Windchill Dew Point Humidity Pressure Visibility Wind Dir Wind Speed Gust Speed Precip Events Conditions
12:53 AM 53.1 °F - 27.0 °F 37% 29.77 in 10.0 mi South 11.5 mph 21.9 mph N/A   Clear
1:53 AM 53.1 °F - 28.0 °F 38% 29.75 in 10.0 mi South 17.3 mph 24.2 mph N/A   Clear
2:53 AM 53.1 °F - 27.0 °F 37% 29.73 in 10.0 mi South 18.4 mph 25.3 mph N/A   Clear
3:53 AM 52.0 °F - 28.9 °F 41% 29.73 in 10.0 mi South 16.1 mph 28.8 mph N/A   Clear
4:53 AM 52.0 °F - 30.0 °F 43% 29.71 in 10.0 mi South 16.1 mph 24.2 mph N/A   Clear
5:53 AM 52.0 °F - 30.0 °F 43% 29.72 in 10.0 mi South 18.4 mph 32.2 mph N/A   Clear
6:53 AM 52.0 °F - 32.0 °F 47% 29.72 in 10.0 mi South 21.9 mph 35.7 mph N/A   Clear
7:53 AM 52.0 °F - 34.0 °F 50% 29.73 in 10.0 mi SSW 19.6 mph 36.8 mph N/A   Clear
8:53 AM 54.0 °F - 36.0 °F 51% 29.73 in 10.0 mi South 20.7 mph 35.7 mph N/A   Clear
9:53 AM 59.0 °F - 34.0 °F 39% 29.71 in 10.0 mi South 31.1 mph 43.7 mph N/A   Partly Cloudy
10:53 AM 57.9 °F - 35.1 °F 42% 29.72 in 10.0 mi South 25.3 mph 39.1 mph 0.00 in Rain Light Rain
11:44 AM 48.2 °F - 41.0 °F 76% 29.89 in 4.0 mi SSW 12.7 mph 21.9 mph 0.03 in Rain Rain
11:53 AM 50.0 °F - 42.1 °F 74% 29.78 in 5.0 mi South 15.0 mph - 0.03 in Rain Light Rain
12:11 PM 48.2 °F - 41.0 °F 76% 29.90 in 4.0 mi South 13.8 mph - 0.02 in Rain Light Rain
12:53 PM 46.9 °F - 39.0 °F 74% 29.79 in 3.0 mi SW 9.2 mph - 0.07 in Rain Rain
1:01 PM 46.4 °F 41.5 °F 39.2 °F 76% 29.90 in 1.8 mi SSW 10.4 mph 18.4 mph 0.02 in Rain Rain
1:12 PM 46.4 °F 40.4 °F 39.2 °F 76% 29.90 in 1.5 mi South 13.8 mph 26.5 mph 0.06 in Rain Rain
1:25 PM 44.6 °F 38.8 °F 39.2 °F 81% 29.89 in 2.5 mi South 11.5 mph 27.6 mph 0.08 in Rain Rain
1:33 PM 46.4 °F 44.3 °F 39.2 °F 76% 29.88 in 5.0 mi South 4.6 mph - 0.08 in Rain Light Rain
1:45 PM 46.4 °F 42.9 °F 41.0 °F 81% 29.86 in 10.0 mi SSW 6.9 mph - 0.08 in Rain Light Rain
1:53 PM 48.9 °F - 41.0 °F 74% 29.73 in 10.0 mi South 10.4 mph - 0.08 in Rain Light Rain
2:18 PM 48.2 °F - 41.0 °F 76% 29.84 in 3.0 mi South 10.4 mph 19.6 mph 0.02 in Rain Light Rain
2:27 PM 48.2 °F - 39.2 °F 71% 29.85 in 10.0 mi SSW 12.7 mph 23.0 mph 0.02 in Rain Light Rain
2:53 PM 48.9 °F - 39.9 °F 71% 29.72 in 10.0 mi SSW 10.4 mph 21.9 mph 0.03 in Rain Light Rain
3:45 PM 44.6 °F 39.2 °F 37.4 °F 76% 29.85 in 4.0 mi South 10.4 mph 24.2 mph 0.03 in Rain Light Rain
3:53 PM 45.0 °F 39.7 °F 37.9 °F 76% 29.75 in 10.0 mi South 10.4 mph - 0.03 in Rain Light Rain
4:14 PM 42.8 °F 39.3 °F 35.6 °F 76% 29.88 in 4.0 mi SSW 5.8 mph - 0.01 in Rain Light Rain
4:31 PM 42.8 °F 38.0 °F 35.6 °F 76% 29.87 in 2.5 mi South 8.1 mph - 0.04 in Rain Rain
4:40 PM 41.0 °F 37.1 °F 35.6 °F 81% 29.86 in 5.0 mi SSW 5.8 mph - 0.04 in Rain Light Rain
4:53 PM 41.0 °F 36.4 °F 35.1 °F 79% 29.76 in 8.0 mi SSW 6.9 mph - 0.05 in Rain Light Rain
5:00 PM 42.8 °F 37.5 °F 35.6 °F 76% 29.86 in 10.0 mi SSW 9.2 mph - 0.00 in Rain Light Rain
5:11 PM 41.0 °F 34.3 °F 35.6 °F 81% 29.86 in 6.0 mi SSW 11.5 mph - 0.00 in Rain Light Rain
5:23 PM 39.2 °F 32.0 °F 35.6 °F 87% 29.86 in 4.0 mi South 11.5 mph - 0.01 in Rain Light Rain
5:46 PM 39.2 °F 37.0 °F 33.8 °F 81% 29.85 in 7.0 mi Variable 3.5 mph - 0.03 in Rain Light Rain
5:53 PM 39.9 °F - 34.0 °F 79% 29.76 in 10.0 mi Calm Calm - 0.03 in Rain Light Rain
6:00 PM 39.2 °F - 35.6 °F 87% 29.85 in 10.0 mi Calm Calm - 0.00 in Rain Light Rain
6:23 PM 39.2 °F 33.0 °F 33.8 °F 81% 29.88 in 3.0 mi South 9.2 mph - 0.02 in Rain Rain
6:45 PM 37.4 °F 30.8 °F 33.8 °F 87% 29.88 in 4.0 mi South 9.2 mph - 0.05 in Rain Light Rain
6:53 PM 37.9 °F 32.1 °F 33.1 °F 83% 29.80 in 5.0 mi South 8.1 mph - 0.07 in Snow Light Snow
7:05 PM 37.4 °F 34.9 °F 33.8 °F 87% 29.88 in 8.0 mi South 3.5 mph - 0.00 in Rain Light Rain
7:32 PM 37.4 °F 33.8 °F 33.8 °F 87% 29.88 in 10.0 mi South 4.6 mph - 0.00 in   Overcast
7:53 PM 37.9 °F 34.4 °F 33.1 °F 83% 29.81 in 10.0 mi SSW 4.6 mph - 0.00 in Rain Light Rain
8:53 PM 37.9 °F 35.5 °F 33.1 °F 83% 29.79 in 10.0 mi Variable 3.5 mph - 0.00 in   Mostly Cloudy
9:53 PM 37.9 °F 35.5 °F 33.1 °F 83% 29.80 in 10.0 mi South 3.5 mph - N/A   Overcast
10:53 PM 37.0 °F 33.3 °F 32.0 °F 82% 29.81 in 10.0 mi South 4.6 mph - N/A   Partly Cloudy
11:53 PM 37.9 °F 35.5 °F 33.1 °F 83% 29.83 in 10.0 mi SSE 3.5 mph - N/A   Overcast